Location: Newark
(35.5300°N, 14.3000°E)
Time: 02:07:29
(UTC+00:00)

Transit 4A - Pass Details

Date: 26 November 2019
Orbit: 871 x 973 km, 66.8° (Epoch: 23 January)

Event Time Altitude Azimuth Distance (km) Brightness Sun altitude
Rises 17:56:57 0° 181° (S) 3,634 11.1 -25.3°
Reaches altitude 10° 17:59:43 10° 172° (S) 2,681 10.3 -25.8°
Enters shadow 18:02:23 23° 155° (SSE) 1,890 9.3 -26.3°
